Torna al catalogo

ATLAS CENTAUR R/B

AttivoLEO
NORAD 6155·ROCKET BODY·🇺🇸 United States

Lanciato Aug 21, 1972 da Cape Canaveral Space Force Station

Loading…

Prossimi Passaggi (prossime 24 ore)

TLE

AggiornatoSource: Space-Track

Epoca: Sep 14, 2026, 10:44 UTC

1 06155U 72065B   26257.44735842  .00000640  00000-0  89709-4 0  9993
2 06155  35.0014 279.1992 0033241 160.4187 199.7797 14.78043746869209

Traccia ATLAS CENTAUR R/B in tempo reale con AllMySat

Download on the App Store